COSMOS 970 DEB, 12862

Orbit data source: Space-Track

COSMOS 970 DEB, 12862 is space debris in LEO originally from a launch on Wed, 21 Dec 1977 UTC launched from the Tyuratam Missile And Space Complex (TTMTR). Debris objects in space refer to the collection of defunct objects orbiting the Earth. Examples of debris include non-operational satellites, rocket bodies, and fragments generated from explosions, collisions, or faulty payload assembly.

Loading next visibility...
Identifier
12862, 1977-121AQ
Orbit
LEO
Country
Flag of CISCIS
Related business
Manufacturer
Unknown
Mission
Spacecraft
Bus & Motor
Unknown
Mass
Unknown
Launch date (UTC)
1977-12-21 (48 years ago)
Launch vehicle
Unknown
Launch site
Tyuratam Missile And Space Complex (TTMTR)
Object type
Payload
Rocket body
Debris
Shape & HBR
Unknown shape, 0.1 m
Radar Cross Section
Medium (>0.1 m² and <1 m²)

Expand to show TLE details & history
Last TLE update: 19 hours ago

TLE from 19 hours ago
0 COSMOS 970 DEB
1 12862U 77121AQ  26171.17593013  .00001062  00000-0  55377-3 0  9992
2 12862  66.2073  86.8857 0137622 193.9230 315.1781 14.13761406351272
Epoch: 2026-06-20T04:13Z
TLE epoch observation values (Epoch: 2026-06-20T04:13:20.363Z)
Latitude
29.09049°
Longitude
-78.96604°
Altitude
779.433 km
Speed
7.503 km/s
True Right ascension
16h 51m 03s
True Declination
28° 56' 42"
Sunlit
Object was in full shadow at epoch
Visualization orbit readout
Latitude
Unknown
Longitude
Unknown
Altitude
Unknown
Speed
Unknown
Apparent Right ascension
Unknown
Apparent Declination
Unknown
Sunlit
N/A
Visualization observer readout
Local Sidereal Time
10:12:24
Azimuth
Unknown
Elevation
Unknown
Doppler factor
Unknown
Orbital elements
Apogee altitude
944.379 km
Perigee altitude
745.567 km
Semi-major axis
7,223.11 km
Eccentricity
0.01376
Inclination
66.2073°
RAAN
86.8857°
Arg. of periapsis
193.923°
True anomaly
314.05279°
Mean anomaly
315.1781°
Eccentric anomaly
314.61682°
Mean motion
3.53555 °/min
Orbital period
101.82 mins
BSTAR
0.00055377
Loading maneuver chart data...
Computing Atmospheric mass density...
Loading historical data...
Loading historical data...
Loading historical data...
Loading historical data...
Loading historical data...
Loading historical data...
Loading historical data...

Documentation

Showing up to 5 results
|